Location: Albany
(35.0170°S, 117.8920°E)
Time: 20:55:08
(UTC+08:00)

A-11 Canister half - Pass Details

Date: 31 January 2021
Orbit: 1525 x 1684 km, 47.3° (Epoch: 03 March)

Event Time Altitude Azimuth Distance (km) Brightness Sun altitude
Rises 09:35:45 0° 247° (WSW) 4,837 11.2 49.2°
Reaches altitude 10° 09:40:04 10° 263° (W) 3,815 10.8 50.0°
Maximum altitude 09:46:15 19° 304° (WNW) 3,090 10.6 51.2°
Drops below altitude 10° 09:52:21 10° 345° (NNW) 3,720 11.2 52.4°
Sets 09:56:32 0° 1° (N) 4,677 11.7 53.2°
